Regional Weather Roundup
Issued by NWS

Home | Current Version | Previous Version | Text Only | Print | Product List | Glossary On
Versions: 1 2 3 4 5 6 7 8 9 10 11 12 13 14 15 16 17 18 19 20 21 22 23 24 25 26 27 28 29 30 31 32 33 34 35 36 37 38 39 40 41 42 43 44 45 46 47 48 49 50
014
ASUS44 KJAN 251310
RWRMS

MISSISSIPPI HOURLY WEATHER ROUNDUP
NATIONAL WEATHER SERVICE JACKSON MS
700 AM CST TUE NOV 25 2014

NOTE: "FAIR: INDICATES FEW OR NO CLOUDS BELOW 12,000 FEET WITH NO
SIGNIFICANT WEATHER AND/OR OBSTRUCTIONS TO VISIBILITY.

MSZ001>002-007>008-010>013-018>021-025>028-034>036-251400-
NORTHWEST MISSISSIPPI

CITY           SKY/WX    TMP DP  RH WIND       PRES   REMARKS
CLARKSDALE     FAIR      36  32  87 CALM      30.22R
CLEVELAND      FAIR      36  33  88 MISG      30.22R
GREENWOOD      CLEAR     29  27  92 CALM      30.21R
GREENVILLE     CLEAR     38  30  73 NW5       30.21R WCI  34
GRENADA        FAIR      28  28 100 CALM      30.21R
OLIVE BRANCH   PTCLDY    34  30  86 NW5       30.16F WCI  30
OXFORD         FAIR      28  27  93 CALM      30.20R
TUNICA         SUNNY     34  30  86 W3        30.22R
$$

MSZ003>006-009-014>017-022>024-029>033-037>039-251400-
NORTHEAST MISSISSIPPI

CITY           SKY/WX    TMP DP  RH WIND       PRES   REMARKS
COLUMBUS AFB   CLEAR     31  30  97 W1        30.17R
CORINTH        FAIR      30  28  93 CALM      30.16R
GOLDN TRIANGLE CLEAR     36  28  75 NW3       30.14S
STARKVILLE       N/A     32  32 100 CALM      30.17R
TUPELO         CLEAR     34  29  82 CALM      30.16R
$$

MSZ040-058-251400-
CENTRAL MISSISSIPPI

CITY           SKY/WX    TMP DP  RH WIND       PRES   REMARKS
JACKSON INTL   MOCLDY    36  33  89 CALM      30.19R
JACKSON HAWKNS PTCLDY    39  33  79 NW5       30.20R
MERIDIAN KEY   PTCLDY    40  36  86 N5        30.16R
MERIDIAN NAS   PTCLDY    40  36  86 NW3       30.15R
RAYMOND        FAIR      34  30  86 CALM      30.21R
VICKSBURG      MOCLDY    32  30  92 CALM      30.22R
$$

MSZ059>079-251400-
SOUTH MISSISSIPPI

CITY           SKY/WX    TMP DP  RH WIND       PRES   REMARKS
BROOKHAVEN     FAIR      37  36  93 NW3       30.20R
COLUMBIA       CLOUDY    45  39  81 MISG        N/A
HATTIESBURG    MOCLDY    44  40  85 NW3       30.16R
MCCOMB         CLEAR     43  33  68 N6        30.17R
NATCHEZ        MOCLDY    37  34  87 CALM      30.21R
PINE BELT      CLOUDY    46  36  66 N9        30.16R
$$

MSZ080>082-251400-
COASTAL MISSISSIPPI

CITY           SKY/WX    TMP DP  RH WIND       PRES   REMARKS
BAY ST LOUIS   CLEAR     48  34  57 N6        30.15
BILOXI         MOCLDY    52  37  56 N9        30.13R
PASCAGOULA     CLOUDY    51  36  56 N7        30.12R
GULFPORT       MOCLDY    52  36  54 N8        30.12R
$$



USA.gov is the U.S. government's official web portal to all federal, state and local government web resources and services.